DW9686 Weather Reports


time (UTC)temp
F
wind
direction
speed
knots
gust
knots
rain 1hr
in
rain 24hr
in
rain mn
in
humidity
%
barometer
mb
20260505194536 77 299 3.5 8.7 0.00 0.00 0.00 50 1011.3
20260505193041 76 330 3.5 9.6 0.00 0.00 0.00 51 1011.4
20260505191544 75 284 4.3 8.7 0.00 0.00 0.00 54 1011.5
20260505190035 74 288 4.3 8.7 0.00 0.00 0.00 54 1011.6
20260505184535 73 322 4.3 8.7 0.00 0.00 0.00 55 1011.7
20260505183032 73 302 5.2 8.7 0.00 0.00 0.00 56 1011.7
20260505181534 72 309 3.5 7.8 0.00 0.00 0.00 57 1011.7
20260505180044 71 318 4.3 8.7 0.00 0.00 0.00 58 1011.7
20260505174539 70 329 4.3 8.7 0.00 0.00 0.00 61 1011.7
20260505173036 69 313 4.3 7.0 0.00 0.00 0.00 59 1011.7
20260505171535 68 331 4.3 12.2 0.00 0.00 0.00 61 1011.6
20260505170035 67 345 3.5 7.0 0.00 0.00 0.00 63 1011.6
20260505164532 66 346 1.7 7.0 0.00 0.00 0.00 64 1011.6
20260505163040 66 346 2.6 5.2 0.00 0.00 0.00 65 1011.5
20260505161535 65 346 2.6 7.0 0.00 0.00 0.00 64 1011.4
20260505153046 62 346 2.6 7.0 0.00 0.00 0.00 66 1011.1
20260505151539 61 346 2.6 7.0 0.00 0.00 0.00 66 1011.0
20260505124535 54 332 3.5 7.0 0.00 0.00 0.00 74 1009.2
20260505123051 54 332 2.6 7.0 0.00 0.00 0.00 74 1009.0
20260505121530 54 328 3.5 8.7 0.00 0.00 0.00 75 1008.9
20260505120035 54 313 3.5 7.0 0.00 0.00 0.00 75 1008.8
20260505114543 54 311 2.6 5.2 0.00 0.00 0.00 74 1008.6
20260505113037 54 311 2.6 7.0 0.00 0.00 0.00 75 1008.4
20260505111551 55 306 3.5 7.0 0.00 0.00 0.00 74 1008.3
20260505101536 58 306 1.7 4.3 0.00 0.00 0.00 73 1007.7
20260505100035 58 306 1.7 3.5 0.00 0.00 0.00 73 1007.4
20260505094530 58 306 2.6 3.5 0.00 0.00 0.00 73 1007.3
20260505093036 59 306 1.7 3.5 0.00 0.00 0.00 71 1007.2
20260505091537 61 306 1.7 4.3 0.00 0.00 0.00 69 1007.1
20260505090034 62 0 0.0 0.0 0.00 0.00 0.00 66 1007.2
20260505084532 61 0 0.0 3.5 0.00 0.00 0.00 69 1007.2
20260505083041 61 306 0.9 3.5 0.00 0.00 0.00 70 1007.1
20260505081537 61 306 2.6 3.5 0.00 0.00 0.00 68 1007.0
20260505080039 62 306 1.7 3.5 0.00 0.00 0.00 67 1007.0
20260505074533 64 306 2.6 6.1 0.00 0.00 0.00 65 1006.9
20260505073033 64 306 1.7 3.5 0.00 0.00 0.00 64 1006.6
20260505071537 65 306 2.6 4.3 0.00 0.00 0.00 61 1006.5
20260505070038 64 306 1.7 3.5 0.00 0.00 0.00 61 1006.4
20260505064550 64 306 1.7 3.5 0.00 0.00 0.00 62 1006.2
20260505063031 66 306 2.6 6.1 0.00 0.00 0.00 59 1006.1
20260505061539 69 0 0.0 0.0 0.00 0.00 0.00 54 1006.0
20260505060032 68 0 0.0 3.5 0.00 0.00 0.00 53 1006.0
20260505054531 68 293 3.5 6.1 0.00 0.00 0.00 55 1006.1
20260505053032 66 44 2.6 4.3 0.00 0.00 0.00 59 1006.1
20260505051536 67 44 1.7 3.5 0.00 0.00 0.00 56 1005.7
20260505041534 71 44 1.7 4.3 0.00 0.00 0.00 47 1005.3
20260505040030 72 44 1.7 8.7 0.00 0.00 0.00 46 1005.1
20260505034534 74 335 1.7 3.5 0.00 0.00 0.00 42 1004.9
20260505033036 73 335 2.6 4.3 0.00 0.00 0.00 48 1004.9
20260505031532 74 335 2.6 4.3 0.00 0.00 0.00 51 1004.7
20260505030032 76 336 1.7 3.5 0.00 0.00 0.00 43 1004.6
20260505024542 78 336 1.7 3.5 0.00 0.00 0.00 44 1004.6
20260505023044 82 0 0.0 0.0 0.00 0.00 0.00 37 1004.6
20260505021539 84 0 0.0 2.6 0.00 0.00 0.00 35 1004.7
20260505020033 85 336 0.9 3.5 0.00 0.00 0.00 31 1004.7
20260505014538 85 336 2.6 4.3 0.00 0.00 0.00 29 1004.8
20260505013033 86 336 3.5 7.0 0.00 0.00 0.00 27 1005.0
20260505011535 86 344 1.7 7.8 0.00 0.00 0.00 27 1005.0
20260505010036 86 333 1.7 7.0 0.00 0.00 0.00 26 1005.2
20260505004532 87 322 2.6 8.7 0.00 0.00 0.00 27 1005.2
20260505003032 87 349 4.3 9.6 0.00 0.00 0.00 26 1005.3
20260505001546 87 350 2.6 8.7 0.00 0.00 0.00 28 1005.3
20260505000039 87 352 2.6 5.2 0.00 0.00 0.00 27 1005.3
20260504234530 87 328 4.3 9.6 0.00 0.00 0.00 26 1005.4
20260504233032 87 309 6.1 11.3 0.00 0.00 0.00 23 1005.4
20260504231540 87 288 2.6 7.8 0.00 0.00 0.00 26 1005.5
20260504230033 87 5 2.6 7.8 0.00 0.00 0.00 25 1005.7
20260504224536 86 338 1.7 8.7 0.00 0.00 0.00 27 1005.7
20260504223032 86 352 1.7 7.8 0.00 0.00 0.00 27 1006.0
20260504221532 86 22 4.3 9.6 0.00 0.00 0.00 28 1006.2
20260504220036 85 352 3.5 7.8 0.00 0.00 0.00 27 1006.4
20260504214532 85 11 2.6 7.8 0.00 0.00 0.00 27 1006.6
20260504213032 84 330 4.3 9.6 0.00 0.00 0.00 29 1006.7
20260504211534 84 57 3.5 7.0 0.00 0.00 0.00 29 1006.8
20260504210050 83 331 2.6 5.2 0.00 0.00 0.00 31 1007.0
20260504204539 83 0 0.9 4.3 0.00 0.00 0.00 38 1007.2
20260504203035 82 0 1.7 5.2 0.00 0.00 0.00 36 1007.5
20260504201533 81 313 2.6 7.0 0.00 0.00 0.00 36 1007.6
20260504200033 81 360 1.7 8.7 0.00 0.00 0.00 38 1007.8